GFSSE_850_temp_114.txt.gz
Temp
21 23 23 22 22 22 21 19 19 18 18 18 18 18 18 18 18 17 17 16 17 16 16 16 16 16 16 16 16 16 16 15 15 15 15 15 15 14 14 15 14 14 14
23 23 23 23 22 22 21 19 18 18 18 18 18 17 17 17 17 17 17 15 16 16 16 16 16 15 15 16 16 16 15 15 15 15 15 15 15 14 14 14 13 14 14
23 23 23 22 22 22 21 20 18 18 18 18 18 17 17 17 17 17 17 15 15 15 16 15 15 15 15 15 15 15 15 15 15 15 14 13 14 14 14 14 14 14 14
23 23 23 22 22 21 20 19 18 18 18 18 18 17 17 17 16 16 16 16 15 16 15 15 15 15 15 15 15 15 15 15 14 14 14 13 13 14 14 14 14 14 14
23 23 22 22 21 21 20 19 18 17 18 18 17 17 16 16 15 15 14 15 15 16 15 15 15 15 15 15 15 15 15 14 14 13 13 13 13 13 14 14 13 13 13
23 22 22 21 21 20 20 19 18 17 17 17 16 16 16 16 15 14 15 15 15 15 15 15 15 15 15 14 15 15 15 14 14 13 13 13 13 13 13 13 13 12 13
23 22 21 21 20 20 19 19 17 17 17 17 16 16 15 15 14 14 14 13 15 15 15 15 15 14 14 14 14 14 14 14 14 13 13 12 13 13 13 13 12 12 12
22 22 21 20 20 19 19 18 17 17 17 16 15 15 15 15 16 16 14 14 15 15 16 15 15 14 14 14 14 14 14 13 13 13 13 12 13 13 13 12 12 12 12
22 21 21 20 19 19 18 18 17 17 16 16 15 15 15 15 16 14 13 15 15 16 15 15 15 14 14 14 13 13 13 13 12 12 12 12 12 12 12 12 13 12 12
21 21 20 20 19 18 18 18 17 16 16 16 15 15 15 15 15 15 14 15 15 15 15 16 14 15 13 13 13 13 13 13 12 12 12 12 12 12 12 13 14 13 14
21 20 20 19 19 19 18 18 17 16 15 15 15 15 15 14 14 14 14 15 14 15 15 14 15 14 13 13 13 12 12 12 11 12 11 11 11 12 12 13 13 13 13
19 20 19 19 19 19 18 17 17 14 14 14 14 14 14 13 13 12 14 13 14 15 15 15 14 13 12 12 12 12 12 12 12 11 11 11 10 10 12 13 13 12 13
18 18 19 19 19 19 18 17 17 15 15 14 14 13 13 12 12 13 12 13 13 14 13 13 13 12 12 11 12 12 11 11 12 12 10 10 10 9 9 11 11 11 12
19 17 19 19 19 19 18 17 17 17 15 14 13 13 13 12 12 12 12 12 13 13 13 13 12 12 11 11 11 11 11 12 12 12 10 9 10 9 8 9 10 12 12
19 17 18 19 19 19 19 17 17 16 14 14 13 13 13 13 12 12 12 12 12 12 11 12 11 11 11 11 11 11 10 11 11 11 10 8 9 8 8 8 9 10 11
20 19 18 19 19 19 19 18 17 16 15 13 13 13 13 13 12 12 12 11 11 12 11 11 11 11 11 11 10 10 10 10 10 10 10 8 8 8 8 8 8 10 11
20 18 18 18 18 18 18 17 17 16 15 14 13 12 12 13 12 12 12 11 11 11 11 11 11 11 11 11 11 10 10 10 10 10 10 8 8 8 8 8 8 9 11
21 19 17 16 18 18 18 17 17 16 15 14 13 12 12 12 12 12 12 11 11 11 11 11 11 10 11 11 11 10 10 10 9 9 10 10 9 8 8 8 9 10 11
20 19 16 16 18 18 17 17 16 16 15 14 12 11 12 12 11 12 11 11 11 11 11 11 11 11 11 11 11 10 10 10 9 9 9 10 10 10 9 10 10 11 11
21 20 16 15 17 17 17 17 16 15 14 13 11 11 11 11 11 11 11 11 11 11 10 11 11 10 11 11 11 10 10 9 10 9 9 10 10 9 10 9 10 10 11
20 20 16 14 14 17 17 16 16 15 15 12 11 11 11 11 11 10 11 10 11 10 10 11 11 10 10 10 10 9 9 9 9 10 10 10 9 9 9 9 9 9 10
20 19 15 14 13 15 16 16 16 16 15 13 11 11 11 11 11 11 11 10 11 10 10 10 10 10 10 10 10 10 9 9 9 9 10 9 9 9 9 8 9 9 9
19 18 15 14 13 15 14 15 14 12 13 12 11 11 10 10 11 11 10 10 11 11 10 11 10 10 10 10 11 11 11 12 10 9 9 9 9 9 9 9 8 8 9
17 16 16 13 12 12 12 14 13 12 12 11 11 11 11 11 11 10 10 10 10 11 10 11 10 10 10 10 11 11 12 13 12 10 10 9 9 9 8 9 9 11 11
15 15 17 14 12 12 12 12 12 12 11 11 10 10 11 11 11 11 10 10 10 10 10 10 10 9 10 10 11 11 11 11 12 13 12 10 9 9 9 9 9 9 11
13 15 16 14 12 14 13 11 12 12 13 11 10 11 11 11 11 10 11 10 10 10 10 10 10 9 10 10 10 10 11 12 12 13 14 12 11 10 10 9 11 11 11

GFSSE_850_temp_117.txt.gz
Temp
24 23 23 23 22 22 21 20 19 18 18 18 18 18 18 18 18 18 18 17 17 17 17 17 17 16 16 16 16 16 16 16 16 16 16 16 15 15 15 15 14 14 15
23 23 23 23 23 22 22 20 19 18 18 18 18 18 18 18 18 17 17 17 16 16 16 16 16 16 16 16 16 16 16 16 16 16 15 15 15 15 14 14 14 14 14
22 23 23 23 22 22 22 21 20 18 18 18 18 18 17 17 17 17 17 16 16 16 16 16 16 16 16 16 16 16 15 15 15 15 15 14 14 15 14 14 14 14 14
22 23 23 23 22 22 22 21 20 19 18 18 18 17 17 17 16 16 16 16 16 16 16 16 16 15 16 16 16 15 15 15 15 15 14 13 13 14 14 14 14 14 14
22 22 23 22 22 22 21 21 20 19 18 18 18 17 16 16 15 14 14 14 15 16 15 16 16 15 15 15 16 15 15 15 14 14 13 13 13 14 14 14 14 13 13
22 21 23 22 22 21 21 21 20 19 18 18 18 16 15 14 14 14 14 13 13 15 15 15 15 15 15 15 15 15 15 14 14 14 14 13 13 13 13 14 14 13 13
21 20 22 22 21 21 20 20 20 19 18 18 17 16 15 15 15 15 14 13 13 13 15 15 15 15 15 15 15 15 14 14 14 14 13 13 13 13 13 13 13 13 13
20 20 22 21 21 20 20 19 19 18 18 17 16 15 15 16 17 17 15 14 15 14 15 15 16 15 14 14 15 14 14 13 13 13 13 13 13 13 13 13 13 13 12
19 21 22 21 21 20 20 20 18 18 17 16 16 15 15 15 16 16 15 15 15 14 15 15 15 15 14 14 14 14 13 13 13 13 13 12 13 13 13 12 13 12 12
18 19 21 21 21 20 20 20 18 17 17 16 15 15 15 16 16 15 15 15 15 14 15 15 15 14 14 14 14 14 13 13 13 12 12 13 13 12 13 13 12 12 12
18 17 17 18 20 20 20 20 19 17 16 16 15 15 15 15 15 15 14 14 14 15 14 14 14 14 13 13 14 13 13 12 12 12 12 12 12 12 12 12 12 12 12
19 18 17 16 17 19 20 20 19 18 17 16 15 15 14 14 14 14 13 14 14 14 13 13 13 13 13 13 13 12 12 12 12 12 12 11 11 11 12 12 12 14 13
20 19 18 17 16 16 20 19 19 18 14 14 14 14 14 13 14 13 13 13 13 13 12 12 12 12 12 12 12 12 12 13 12 12 12 11 11 11 9 11 13 13 13
22 19 18 17 16 17 19 19 16 16 15 14 14 14 14 13 14 13 13 12 13 13 13 13 12 12 12 13 12 12 12 13 14 13 12 11 11 10 9 10 11 12 11
23 21 19 17 16 18 18 17 16 16 14 14 14 14 14 13 13 13 13 13 13 13 13 13 12 12 12 12 12 12 12 13 13 12 10 10 9 9 9 8 9 9 12
22 22 19 17 17 16 19 19 17 18 17 17 16 15 14 14 14 12 13 13 12 12 12 12 13 12 12 12 12 13 13 13 12 13 11 9 9 9 9 9 8 10 11
23 22 20 18 17 16 18 18 18 15 15 17 17 15 14 14 13 13 12 12 12 12 12 12 11 11 12 12 12 12 12 12 12 12 10 8 8 9 8 9 8 9 10
24 22 20 19 17 16 15 15 15 17 16 15 16 15 14 14 13 13 12 12 12 12 11 11 11 11 11 11 12 12 12 12 11 11 11 10 9 8 8 9 8 9 11
24 23 22 19 17 16 15 15 14 15 16 14 15 15 14 13 13 12 12 12 12 12 11 11 11 11 10 12 12 11 12 12 11 11 11 10 9 9 8 9 9 10 12
23 22 21 20 17 16 15 14 14 14 16 16 15 15 14 13 12 13 12 12 12 12 11 11 11 11 11 12 12 11 11 12 11 11 11 11 10 10 10 11 11 11 11
23 21 19 19 17 15 14 14 14 14 16 15 15 14 14 13 12 12 12 12 12 11 11 12 11 11 11 12 12 11 10 11 11 11 11 11 11 11 11 10 9 9 11
21 19 19 18 17 15 14 14 13 13 14 13 12 13 14 13 12 12 12 11 11 11 11 11 11 10 11 12 11 10 10 10 10 11 11 11 11 11 11 10 10 10 10
20 19 18 18 17 15 14 14 13 13 13 13 13 13 12 12 12 12 12 11 11 11 11 11 10 11 11 11 11 11 11 11 10 11 11 11 11 11 11 10 10 10 10
20 19 18 18 17 15 13 12 14 13 12 13 12 12 11 11 11 12 11 11 11 11 10 10 10 11 11 10 10 11 12 13 11 11 11 11 11 10 10 10 10 9 9
21 18 16 17 17 14 13 14 13 15 13 13 13 12 11 12 11 12 11 11 11 11 10 10 10 10 11 11 11 11 12 13 13 12 12 11 11 10 10 10 10 9 9
19 16 14 15 16 14 13 14 14 14 14 14 13 12 11 11 12 11 11 11 11 10 10 10 10 11 10 10 11 12 12 13 13 13 13 12 11 11 11 10 9 9 10

GFSSE_850_temp_123.txt.gz
Temp
24 24 23 23 23 23 22 21 20 20 19 19 19 19 18 18 19 18 18 18 17 17 17 17 16 17 16 16 16 16 16 15 15 15 15 16 16 16 16 15 15 16 15
24 23 23 23 23 22 21 21 20 19 19 18 18 18 18 18 18 17 18 17 17 17 16 16 16 16 17 16 16 16 16 15 15 15 15 16 16 16 15 15 15 15 15
24 23 23 23 23 22 21 21 20 19 18 18 18 18 17 17 16 16 16 16 16 16 16 16 16 16 16 16 16 16 16 15 15 15 16 16 15 15 15 15 15 15 14
23 23 23 23 22 22 21 21 20 19 18 18 18 17 16 16 16 16 16 16 15 14 15 16 16 16 16 16 15 15 15 15 15 15 15 15 14 14 15 15 14 14 14
23 23 23 23 22 22 21 21 20 19 19 18 18 17 17 17 16 17 17 17 16 15 15 15 15 16 16 16 15 15 14 14 14 15 15 14 14 14 14 14 14 14 14
24 23 23 22 22 22 21 21 20 19 19 19 18 17 17 17 16 16 16 17 16 15 14 14 15 15 15 15 15 14 14 14 14 14 14 14 14 14 14 14 14 14 13
24 23 23 22 22 22 21 21 20 20 19 19 18 18 17 17 16 17 16 16 16 15 14 15 15 15 15 15 14 14 14 14 14 14 14 14 14 14 14 14 14 13 13
24 23 23 22 22 22 21 21 20 20 19 19 18 18 17 16 16 17 16 15 16 15 15 15 14 14 15 14 14 14 14 14 14 14 14 14 13 13 14 14 13 13 13
23 23 23 22 22 22 21 21 20 20 19 19 18 17 17 16 16 16 16 16 15 15 15 15 14 14 14 14 14 14 14 14 14 14 14 13 13 13 13 13 13 13 12
23 22 22 22 22 22 21 20 20 19 19 19 18 17 16 16 16 16 15 15 15 15 15 15 14 14 14 13 13 13 14 14 14 14 14 13 13 13 13 13 13 12 12
22 22 22 22 22 22 21 21 20 19 19 19 18 17 16 16 15 15 15 14 14 14 14 15 14 14 13 13 13 14 13 13 13 13 13 13 13 13 13 13 12 12 12
22 22 22 22 22 22 21 21 20 19 19 19 18 17 16 16 15 15 15 14 14 13 14 14 14 14 14 13 14 13 13 13 13 13 13 13 12 12 12 13 12 12 12
22 22 23 22 21 21 21 21 20 20 19 19 18 17 17 15 15 14 15 14 14 14 13 14 13 13 13 13 13 13 13 13 13 13 12 12 12 12 12 12 12 12 12
21 23 23 23 21 21 20 21 20 20 19 19 18 17 17 16 14 15 14 14 14 14 14 14 14 14 13 13 13 13 12 12 12 12 12 12 12 12 13 11 12 13 13
22 22 23 23 23 21 20 20 20 20 20 18 18 17 17 16 15 14 14 14 14 15 14 14 14 13 13 13 13 13 12 12 12 12 12 12 12 12 11 10 11 12 13
22 22 22 22 22 22 21 20 20 19 19 18 17 16 16 16 15 15 14 14 14 14 14 14 13 13 13 13 13 12 12 12 12 12 12 12 12 12 11 10 10 10 12
23 22 22 22 22 22 22 20 18 19 17 17 17 15 15 15 15 15 14 13 13 13 14 13 13 13 13 12 12 12 12 12 12 12 12 12 11 10 10 9 10 11 13
24 23 22 22 21 22 22 21 19 17 17 15 16 16 15 15 14 14 14 13 14 13 13 13 13 13 12 12 11 13 12 12 12 12 12 12 11 10 9 9 11 11 13
24 24 23 22 22 21 21 20 19 18 16 15 15 16 16 15 14 14 14 13 13 13 13 13 12 13 12 12 12 12 12 13 13 12 12 12 11 10 9 8 10 12 13
24 24 24 23 22 21 21 20 18 17 16 16 15 15 16 15 14 13 13 13 13 13 13 13 12 12 12 12 11 11 12 13 12 12 12 11 11 10 10 9 9 12 13
24 24 24 23 22 21 20 20 18 18 16 15 15 14 15 14 13 14 13 13 12 13 13 13 12 12 12 11 11 11 11 12 12 12 11 11 11 10 10 10 10 11 12
24 24 24 23 22 21 21 20 19 19 17 16 14 13 13 13 13 13 13 13 12 12 12 12 12 12 12 11 11 11 10 11 12 11 11 11 11 10 10 10 11 11 12
24 24 24 23 22 21 20 19 17 16 15 15 14 13 13 13 14 12 13 12 12 12 12 12 12 12 12 11 11 11 10 10 11 11 11 11 11 11 11 10 10 11 11
23 23 23 22 21 20 19 18 18 18 16 15 14 13 13 13 13 13 12 12 12 12 11 11 12 12 12 11 10 10 11 11 11 11 11 11 11 11 11 11 10 11 11
23 23 23 22 21 20 19 19 18 17 16 15 15 13 13 12 13 12 12 11 11 11 11 11 11 11 12 12 11 10 10 11 11 11 10 11 11 11 11 11 10 10 10
22 22 21 21 21 19 19 18 17 17 15 15 14 13 12 12 12 12 11 11 11 11 11 11 11 11 11 11 11 10 10 10 11 11 11 11 11 11 11 11 10 10 10

GFSSE_850_temp_129.txt.gz
Temp
23 22 21 21 21 21 21 21 21 21 20 19 19 19 19 18 17 17 17 17 17 17 16 16 16 16 16 16 16 16 16 16 16 15 15 16 16 15 16 16 16 15 15
24 23 22 22 21 21 21 21 21 20 20 19 19 18 18 18 17 17 17 17 16 16 16 16 16 16 16 16 16 16 16 16 16 16 16 15 16 15 16 15 15 15 15
23 23 23 22 21 21 21 21 21 20 19 19 18 18 18 18 18 17 17 17 17 17 17 16 16 16 15 16 15 15 16 16 16 15 15 15 15 15 15 15 15 15 14
23 23 23 22 21 21 21 21 20 20 19 18 18 18 18 18 18 18 18 17 17 17 16 16 16 16 16 15 16 15 15 15 16 15 15 15 15 15 15 15 14 14 14
23 23 23 22 22 22 21 21 20 20 19 18 18 18 17 17 17 17 17 17 17 17 17 16 16 16 16 16 15 15 15 15 15 15 15 15 15 14 14 14 14 14 14
23 23 22 22 22 22 22 21 20 20 19 18 18 17 17 17 17 17 17 17 17 16 16 17 16 15 15 15 15 15 15 15 15 15 15 15 14 14 14 14 14 14 13
23 23 22 22 22 22 22 22 21 20 19 18 18 17 17 17 17 17 16 16 16 16 16 16 16 15 15 15 16 15 15 14 15 15 15 15 14 14 14 14 14 13 13
24 23 23 22 22 22 22 22 21 20 19 19 18 17 17 17 17 17 16 15 15 15 16 15 16 15 15 14 15 14 14 14 14 14 15 14 14 14 14 13 13 13 12
23 23 23 22 22 22 22 22 21 20 20 19 18 17 17 17 17 17 16 15 14 14 15 15 15 15 14 14 14 14 14 14 14 14 14 14 14 13 13 13 13 12 12
23 23 23 23 22 22 22 22 21 21 20 19 18 17 17 17 16 17 16 15 15 14 15 15 15 15 13 14 14 14 14 14 14 14 14 14 13 13 13 13 12 12 12
22 22 22 23 22 22 22 21 21 21 20 19 18 17 17 16 16 16 16 15 15 14 15 15 15 15 14 14 14 14 14 13 13 14 13 13 13 13 12 13 12 12 12
22 22 23 23 22 22 22 21 21 21 20 19 19 18 17 16 16 16 16 15 14 14 14 15 15 15 14 14 13 13 14 13 13 13 13 13 13 12 12 13 12 12 12
23 22 23 22 22 22 22 21 21 21 20 19 19 18 17 16 16 15 15 15 15 14 14 14 14 15 14 14 13 13 14 13 13 13 13 13 13 12 13 13 12 12 12
21 23 23 22 22 22 21 21 21 20 20 20 20 18 18 17 16 15 15 15 15 15 14 15 15 14 14 13 13 13 13 13 13 13 13 12 12 12 13 12 12 12 12
19 19 22 22 22 21 21 21 21 20 20 20 20 19 18 17 17 16 15 15 15 15 14 14 15 14 14 13 13 13 13 13 13 13 12 12 12 12 12 12 12 10 10
20 19 20 21 21 21 21 21 21 21 20 20 20 19 18 17 17 16 15 15 14 15 14 14 15 14 14 13 13 13 13 13 12 12 12 12 12 12 11 11 10 10 9
22 22 20 21 21 21 21 20 20 20 20 20 20 19 18 17 17 16 16 15 15 15 14 14 14 14 14 13 13 12 12 12 12 12 12 12 12 12 11 10 10 9 9
22 22 21 20 20 21 21 20 20 20 20 20 19 19 18 18 17 16 16 15 15 14 14 13 14 13 13 13 12 12 12 11 11 11 11 12 12 12 12 9 9 9 9
22 22 22 21 20 21 21 20 20 20 19 19 19 18 18 17 17 15 15 15 14 14 14 13 13 13 13 13 12 12 11 11 11 11 11 12 12 12 11 10 9 9 8
21 22 22 22 21 21 21 20 19 18 18 18 19 18 18 17 16 15 14 15 14 14 13 13 13 13 13 13 12 12 11 11 11 11 11 11 12 12 11 10 9 8 8
20 21 22 22 22 21 20 19 19 19 19 18 18 17 17 16 16 15 14 14 14 14 14 13 12 12 12 12 12 11 11 11 11 11 11 11 11 11 11 10 9 9 8
20 21 21 21 22 22 22 21 20 20 18 19 18 17 16 16 15 15 15 14 14 14 13 13 12 12 12 12 11 11 10 10 10 11 10 11 11 10 11 10 9 9 9
21 20 21 21 21 22 22 21 19 18 17 18 17 17 17 15 15 14 14 13 13 13 13 13 12 12 12 12 11 11 10 10 10 11 10 10 10 10 10 10 10 9 9
20 21 21 22 21 21 21 21 20 21 20 20 20 18 16 14 14 14 14 13 12 12 12 12 12 13 13 12 11 11 11 11 10 10 10 10 10 10 10 10 10 10 9
20 20 20 21 19 20 21 21 22 20 20 19 19 18 16 14 14 14 13 13 13 12 12 12 12 12 12 12 12 12 11 11 11 11 10 10 9 10 9 10 10 10 9
20 19 19 20 18 18 20 21 20 19 19 19 19 18 16 14 14 13 13 13 13 13 12 12 12 12 12 12 12 11 12 11 11 11 11 11 11 10 9 9 10 10 10